Stündliche Wetter Holubivka

Heute, 21 Juni, Montag

Zeit Temperatur Niederschläge Wind Luftdruck Luftfeuchtigkeit
00:00 +21°C° 0 mm 5 m/S 742 mmHg 67%
01:00 +20°C° 0 mm 5 m/S 742 mmHg 68%
02:00 +20°C° 0 mm 5 m/S 743 mmHg 66%
03:00 +20°C° 0 mm 4 m/S 743 mmHg 67%
04:00 +20°C° 0 mm 4 m/S 743 mmHg 68%
05:00 +19°C° 0 mm 4 m/S 743 mmHg 70%
06:00 +21°C° 0 mm 5 m/S 743 mmHg 65%
07:00 +23°C° 0 mm 5 m/S 743 mmHg 61%
08:00 +26°C° 0 mm 6 m/S 744 mmHg 56%
09:00 +27°C° 0 mm 6 m/S 744 mmHg 52%
10:00 +28°C° 0 mm 6 m/S 744 mmHg 48%
11:00 +30°C° 0 mm 6 m/S 744 mmHg 43%
12:00 +30°C° 0 mm 6 m/S 744 mmHg 45%
13:00 +30°C° 0 mm 6 m/S 744 mmHg 46%
14:00 +32°C° 0 mm 6 m/S 744 mmHg 48%
15:00 +30°C° 0 mm 6 m/S 744 mmHg 50%
16:00 +29°C° 0 mm 6 m/S 744 mmHg 53%
17:00 +29°C° 0 mm 5 m/S 744 mmHg 55%
18:00 +27°C° 0 mm 5 m/S 744 mmHg 59%
19:00 +25°C° 0 mm 4 m/S 744 mmHg 62%
20:00 +22°C° 0 mm 4 m/S 744 mmHg 66%
21:00 +22°C° 0 mm 4 m/S 744 mmHg 66%
22:00 +21°C° 0 mm 4 m/S 744 mmHg 65%
23:00 +20°C° 0 mm 4 m/S 743 mmHg 64%

Morgen, 22 Juni, Dienstag

Zeit Temperatur Niederschläge Wind Luftdruck Luftfeuchtigkeit
00:00 +20°C° 0 mm 4 m/S 743 mmHg 63%
01:00 +19°C° 0 mm 4 m/S 743 mmHg 63%
02:00 +19°C° 0 mm 4 m/S 743 mmHg 62%
03:00 +19°C° 0.2 mm 4 m/S 743 mmHg 65%
04:00 +19°C° 0.2 mm 4 m/S 744 mmHg 68%
05:00 +18°C° 0.2 mm 4 m/S 744 mmHg 71%
06:00 +20°C° 0 mm 5 m/S 744 mmHg 66%
07:00 +22°C° 0 mm 5 m/S 744 mmHg 62%
08:00 +25°C° 0 mm 5 m/S 744 mmHg 57%
09:00 +27°C° 0 mm 6 m/S 744 mmHg 52%
10:00 +28°C° 0 mm 6 m/S 744 mmHg 47%
11:00 +30°C° 0 mm 7 m/S 744 mmHg 43%
12:00 +32°C° 0 mm 6 m/S 744 mmHg 44%
13:00 +32°C° 0 mm 6 m/S 744 mmHg 45%
14:00 +33°C° 0 mm 6 m/S 744 mmHg 46%
15:00 +32°C° 0 mm 5 m/S 744 mmHg 49%
16:00 +32°C° 0 mm 5 m/S 744 mmHg 52%
17:00 +30°C° 0 mm 4 m/S 744 mmHg 55%
18:00 +29°C° 0 mm 4 m/S 743 mmHg 59%
19:00 +27°C° 0 mm 4 m/S 743 mmHg 63%
20:00 +25°C° 0 mm 4 m/S 743 mmHg 68%
21:00 +25°C° 0 mm 5 m/S 743 mmHg 65%
22:00 +24°C° 0 mm 6 m/S 743 mmHg 63%
23:00 +26°C° 0 mm 6 m/S 743 mmHg 60%

übermorgen, 23 Juni, Mittwoch

Zeit Temperatur Niederschläge Wind Luftdruck Luftfeuchtigkeit
00:00 +24°C° 0 mm 6 m/S 743 mmHg 61%
01:00 +23°C° 0 mm 5 m/S 743 mmHg 61%
02:00 +22°C° 0 mm 5 m/S 743 mmHg 61%
03:00 +22°C° 0 mm 4 m/S 743 mmHg 64%
04:00 +22°C° 0 mm 4 m/S 743 mmHg 66%
05:00 +21°C° 0 mm 3 m/S 743 mmHg 68%
06:00 +24°C° 0 mm 3 m/S 743 mmHg 64%
07:00 +26°C° 0 mm 4 m/S 744 mmHg 60%
08:00 +27°C° 0 mm 4 m/S 744 mmHg 56%
09:00 +28°C° 0 mm 4 m/S 744 mmHg 53%
10:00 +30°C° 0 mm 4 m/S 744 mmHg 50%
11:00 +31°C° 0 mm 3 m/S 744 mmHg 48%
12:00 +32°C° 0 mm 4 m/S 744 mmHg 47%
13:00 +33°C° 0 mm 4 m/S 744 mmHg 46%
14:00 +33°C° 0 mm 4 m/S 744 mmHg 45%
15:00 +33°C° 0 mm 4 m/S 744 mmHg 48%
16:00 +32°C° 0 mm 4 m/S 744 mmHg 52%
17:00 +32°C° 0 mm 4 m/S 744 mmHg 56%
18:00 +29°C° 0 mm 4 m/S 744 mmHg 61%
19:00 +27°C° 0 mm 4 m/S 744 mmHg 67%
20:00 +25°C° 0 mm 4 m/S 744 mmHg 73%
21:00 +25°C° 0 mm 4 m/S 744 mmHg 74%
22:00 +23°C° 0 mm 4 m/S 744 mmHg 76%
23:00 +23°C° 0 mm 4 m/S 743 mmHg 77%

24 Juni, Donnerstag

Zeit Temperatur Niederschläge Wind Luftdruck Luftfeuchtigkeit
00:00 +22°C° 0 mm 4 m/S 743 mmHg 76%
01:00 +22°C° 0 mm 4 m/S 743 mmHg 75%
02:00 +21°C° 0 mm 4 m/S 743 mmHg 74%
03:00 +21°C° 0 mm 4 m/S 743 mmHg 73%
04:00 +21°C° 0 mm 4 m/S 743 mmHg 72%
05:00 +21°C° 0 mm 4 m/S 743 mmHg 72%
06:00 +22°C° 0 mm 4 m/S 743 mmHg 68%
07:00 +25°C° 0 mm 5 m/S 743 mmHg 65%
08:00 +26°C° 0 mm 5 m/S 744 mmHg 62%
09:00 +27°C° 0 mm 6 m/S 744 mmHg 60%
10:00 +27°C° 0 mm 6 m/S 744 mmHg 58%
11:00 +28°C° 0 mm 6 m/S 744 mmHg 56%
12:00 +29°C° 0 mm 6 m/S 744 mmHg 54%
13:00 +30°C° 0 mm 6 m/S 744 mmHg 52%
14:00 +32°C° 0 mm 6 m/S 744 mmHg 50%
15:00 +30°C° 0 mm 5 m/S 745 mmHg 53%
16:00 +29°C° 0 mm 4 m/S 745 mmHg 57%
17:00 +29°C° 0 mm 3 m/S 745 mmHg 60%
18:00 +27°C° 0 mm 3 m/S 745 mmHg 59%
19:00 +26°C° 0 mm 3 m/S 744 mmHg 58%
20:00 +25°C° 0 mm 2 m/S 744 mmHg 57%
21:00 +25°C° 0 mm 2 m/S 744 mmHg 62%
22:00 +25°C° 0 mm 2 m/S 744 mmHg 66%
23:00 +25°C° 0 mm 2 m/S 744 mmHg 71%

25 Juni, Freitag

Zeit Temperatur Niederschläge Wind Luftdruck Luftfeuchtigkeit
00:00 +25°C° 0 mm 2 m/S 744 mmHg 74%
01:00 +24°C° 0 mm 3 m/S 744 mmHg 77%
02:00 +24°C° 0 mm 3 m/S 743 mmHg 80%
03:00 +24°C° 0 mm 3 m/S 743 mmHg 79%
04:00 +24°C° 0 mm 3 m/S 743 mmHg 79%
05:00 +24°C° 0 mm 3 m/S 743 mmHg 78%
06:00 +25°C° 0 mm 4 m/S 743 mmHg 75%
07:00 +26°C° 0 mm 5 m/S 743 mmHg 71%
08:00 +27°C° 0 mm 6 m/S 744 mmHg 68%
09:00 +29°C° 0 mm 6 m/S 744 mmHg 62%
10:00 +30°C° 0 mm 6 m/S 744 mmHg 56%
11:00 +33°C° 0 mm 6 m/S 744 mmHg 50%
12:00 +33°C° 0 mm 6 m/S 743 mmHg 49%
13:00 +34°C° 0 mm 6 m/S 743 mmHg 48%
14:00 +34°C° 0 mm 5 m/S 743 mmHg 47%
15:00 +34°C° 0 mm 5 m/S 743 mmHg 50%
16:00 +33°C° 0 mm 4 m/S 743 mmHg 54%
17:00 +33°C° 0 mm 4 m/S 743 mmHg 58%
18:00 +30°C° 0 mm 4 m/S 743 mmHg 64%
19:00 +28°C° 0 mm 3 m/S 743 mmHg 69%
20:00 +26°C° 0 mm 3 m/S 743 mmHg 75%
21:00 +26°C° 0 mm 3 m/S 743 mmHg 77%
22:00 +25°C° 0 mm 3 m/S 743 mmHg 79%
23:00 +24°C° 0 mm 2 m/S 743 mmHg 80%

26 Juni, Samstag

Zeit Temperatur Niederschläge Wind Luftdruck Luftfeuchtigkeit
00:00 +24°C° 0 mm 3 m/S 743 mmHg 80%
01:00 +24°C° 0 mm 3 m/S 743 mmHg 80%
02:00 +24°C° 0 mm 3 m/S 743 mmHg 80%
03:00 +24°C° 0.1 mm 3 m/S 743 mmHg 81%
04:00 +24°C° 0.1 mm 2 m/S 743 mmHg 81%
05:00 +24°C° 0.1 mm 2 m/S 743 mmHg 81%
06:00 +25°C° 0 mm 3 m/S 743 mmHg 76%
07:00 +27°C° 0 mm 3 m/S 743 mmHg 70%
08:00 +28°C° 0 mm 4 m/S 743 mmHg 65%
09:00 +30°C° 0 mm 4 m/S 743 mmHg 60%
10:00 +32°C° 0 mm 4 m/S 743 mmHg 54%
11:00 +33°C° 0 mm 4 m/S 743 mmHg 49%
12:00 +34°C° 0 mm 4 m/S 743 mmHg 47%
13:00 +34°C° 0 mm 4 m/S 743 mmHg 45%
14:00 +35°C° 0 mm 4 m/S 743 mmHg 43%
15:00 +34°C° 0 mm 4 m/S 742 mmHg 47%
16:00 +33°C° 0 mm 4 m/S 742 mmHg 51%
17:00 +32°C° 0 mm 4 m/S 742 mmHg 56%
18:00 +29°C° 0.2 mm 3 m/S 742 mmHg 63%
19:00 +26°C° 0.2 mm 3 m/S 742 mmHg 70%
20:00 +24°C° 0.2 mm 2 m/S 742 mmHg 77%
21:00 +23°C° 0.6 mm 2 m/S 742 mmHg 79%
22:00 +21°C° 0.6 mm 2 m/S 742 mmHg 82%
23:00 +20°C° 0.6 mm 2 m/S 742 mmHg 84%
Mehr zeigen

Wir brauchen deine Erlaubnis

Meteoprog und unser Service Anbieter werden persönliche Daten aufbewahren, so wie Cookies, Geräte Bezeichnung oder ähnliche Technologien von deinem Gerät und Prozess, so wie Persönliche Daten Inhalte und Werbungen, genauso wie social Media und den Verkehr zu analysieren.

  • Aufbewahrung und/oder Zugang zu deiner Geräte Informationen.

    Cookies, Geräte Bezeichnung oder andere Informationen, können aufbewahrt oder Zugang zu deinem Gerät erhalten, für den Grund, der oben angegeben wird.

  • Personalisierte Werbung und Inhalte, Messungen, Einblick in das Publikum und Produkt Entwicklung.

    Werbungen und Inhalte können personalisiert werden, basierend auf ein Profil. Mehr Daten können besser personalisierte Werbungen und Inhalte hinzufügen. Werbung und Inhalte können gezeigt und gemessen werden. Einblicke über das Publikum, welche die Werbung gesehen haben und den Inhalt, können abgeleitet werden. So wie Daten können genutzt werden, um es zu verbessern oder die Benutzer Erfahrung zu verbessern das System und die Software.

Wenn du “Ich stimme zu” klickst, erlaubst du uns, die Cookies zu benutzen die Geräte Bezeichnung, den Web oder ähnliche Technologien zu benutzen. Deine Settings, können in deinem Gerät bei deinem Browser geändert werden.

Für den bestimmten Zweck, berechtigten Interessen beruhen darauf, mehr als auf den Inhalt. Du kannst mehr darüber in unseren Privaten und Cookie Politik lesen.